Simultaneous Nadir Overpasses (SNOs) Predictions

Prediction of SNOs between GOES-15 and METOP-C Satellite Orbit:

Table of predicted SNOs for the next 14.0 days since TLE Epoch: 4/22/2023
Index Date Time (GOES-15) GOES-15 Lat,Lon METOP-C Lat,Lon Distance(km) Time Diff (sec)
1 04/23/2023 06:58:25 0.20,-137.54 -0.71,-141.56 458.57 80
2 04/24/2023 06:35:07 0.20,-138.01 0.52,-136.59 162.10 80
3 04/25/2023 18:56:43 -0.21,-138.74 0.32,-141.19 279.61 80
4 04/26/2023 18:33:25 -0.21,-139.21 -0.91,-136.23 341.16 80
5 04/28/2023 06:55:07 0.22,-139.95 0.04,-140.86 102.73 80
6 04/30/2023 18:50:43 -0.23,-141.14 -0.35,-140.47 75.28 80
7 05/02/2023 07:12:26 0.23,-141.87 -0.52,-145.10 368.74 80
8 05/03/2023 06:49:08 0.23,-142.34 0.72,-140.14 251.07 80
9 05/04/2023 19:10:42 -0.23,-143.04 0.13,-144.74 192.31 80
10 05/05/2023 18:47:24 -0.23,-143.51 -1.07,-139.76 427.24 80
